User: anonymous   Login
Location: ???? ?????????
(31.1304°N, 31.7111°E)
Time: 08:32:08
(UTC+00:00)
Language:

FENGYUN 1C DEB - Orbit

View from above orbital plane
View from above orbital plane
View from above satellite
View from above satellite

Ground track
Ground track

The orbit data is extracted from the following two-line orbital elements,

1 30802U 99025AUL 21171.12548014  .00000586  00000-0  31118-3 0  9991
2 30802  98.9339 223.9581 0025551  74.5001 340.3112 14.17308963739321
Epoch (UTC): 20 June 2021 03:00:41
Eccentricity: 0.0025551
inclination: 98.9339°
perigee height: 816 km
apogee height: 853 km
right ascension of ascending node: 223.9581°
argument of perigee: 74.5001°
revolutions per day: 14.17308963
mean anomaly at epoch: 340.3112°
orbit number at epoch: 73932

The dashed part of the orbit path shows where the satellite is in the earth's shadow,  

DLR